Location: Fauquembergues
(50.6005°N, 2.0987°E)
Time: 21:07:50
(UTC+00:00)

Lacrosse 5 - Pass Details

Date: 14 July 2020
Orbit: 717 x 720 km, 57.0° (Epoch: 11 August)

Event Time Altitude Azimuth Distance (km) Brightness Sun altitude
Exits shadow 00:10:40 32° 200° (SSW) 1,219 2.5 -17.7°
Maximum altitude 00:12:45 55° 139° (SE) 866 2.0 -17.7°
Drops below altitude 10° 00:17:42 10° 63° (ENE) 2,206 4.8 -17.6°
Sets 00:20:07 0° 59° (ENE) 3,130 5.7 -17.6°
